Location: Recife
(8.0585°S, 34.8848°W)
Time: 20:54:50
(UTC-03:00)

Explorer 11/Cluster Stage 4 - Pass Details

Date: 14 April 2026
Orbit: 463 x 1174 km, 28.8° (Epoch: 16 May)

Event Time Altitude Azimuth Distance (km) Brightness Sun altitude
Rises 21:54:07 0° 266° (W) 2,895 - -68.8°
Reaches altitude 10° 21:57:25 10° 243° (WSW) 1,856 - -69.6°
Maximum altitude 21:59:58 15° 206° (SSW) 1,454 - -70.2°
Drops below altitude 10° 22:02:20 10° 168° (SSE) 1,701 - -70.8°
Sets 22:05:10 0° 144° (SE) 2,522 - -71.5°
